FDX612A RCTP-RKSI

Flight info

Callsign FDX612A
Flight time N/A
Altitude 37000
Route PIANO1A PIANO L3 SALMI B576 CJU Y722 OLMEN OLMEN3C
Aircraft MD11/H-SDE1E2E3FGHIJ2J3J4J5M1RWXY/LB1D1

Departure

Time N/A
Airport Taiwan Taoyuan International Airport (RCTP)

Arrival

Time 2026-05-05 22:55
Airport Incheon International Airport (RKSI)
Time Latitude Longitude Altitude Speed Heading
2026-05-05 21:14 25.93423 121.92052 33224 ft 541 kts 31°
2026-05-05 21:15 25.96463 121.94477 34098 ft 539 kts 32°
2026-05-05 21:15 25.99486 121.96922 34966 ft 536 kts 32°
2026-05-05 21:15 26.02466 121.99350 35816 ft 532 kts 32°
2026-05-05 21:15 26.05457 122.01738 36567 ft 528 kts 30°
2026-05-05 21:16 26.08478 122.04054 36883 ft 529 kts 30°
2026-05-05 21:16 26.11510 122.06397 36911 ft 525 kts 31°
2026-05-05 21:16 26.17417 122.11046 36938 ft 520 kts 31°
2026-05-05 21:17 26.23303 122.15709 36954 ft 520 kts 31°
2026-05-05 21:17 26.29215 122.20382 36963 ft 522 kts 31°
2026-05-05 21:18 26.35163 122.25075 36968 ft 523 kts 31°
2026-05-05 21:18 26.41124 122.29780 36976 ft 524 kts 31°
2026-05-05 21:19 26.47058 122.34457 36983 ft 523 kts 31°
2026-05-05 21:19 26.52989 122.39130 36979 ft 523 kts 31°
2026-05-05 21:20 26.58973 122.43838 36981 ft 523 kts 31°
2026-05-05 21:20 26.64917 122.48518 36987 ft 524 kts 31°
2026-05-05 21:21 26.70922 122.53243 36993 ft 526 kts 31°
2026-05-05 21:21 26.76892 122.57985 36995 ft 527 kts 32°
2026-05-05 21:22 26.82831 122.62741 37000 ft 527 kts 32°
2026-05-05 21:22 26.88824 122.67509 36992 ft 527 kts 32°
2026-05-05 21:23 26.94803 122.72280 36993 ft 527 kts 32°
2026-05-05 21:23 27.00783 122.77044 36998 ft 527 kts 32°
2026-05-05 21:24 27.06736 122.81785 37000 ft 528 kts 32°
2026-05-05 21:24 27.12753 122.86567 37004 ft 528 kts 32°
2026-05-05 21:25 27.18743 122.91372 36975 ft 528 kts 33°
2026-05-05 21:25 27.24532 122.96408 36977 ft 530 kts 37°
2026-05-05 21:26 27.30211 123.01823 36987 ft 532 kts 38°
2026-05-05 21:26 27.35822 123.07232 36993 ft 532 kts 38°
2026-05-05 21:27 27.41454 123.12604 37005 ft 531 kts 38°
2026-05-05 21:27 27.47057 123.17981 37013 ft 532 kts 38°
2026-05-05 21:28 27.52677 123.23418 37011 ft 533 kts 38°
2026-05-05 21:28 27.58284 123.28865 37015 ft 533 kts 38°
2026-05-05 21:29 27.63946 123.34338 37016 ft 534 kts 38°
2026-05-05 21:29 27.69552 123.39770 37017 ft 534 kts 38°
2026-05-05 21:30 27.75186 123.45216 37026 ft 533 kts 38°
2026-05-05 21:30 27.80841 123.50691 37024 ft 534 kts 38°
2026-05-05 21:31 27.86465 123.56120 37031 ft 535 kts 38°
2026-05-05 21:31 27.92126 123.61601 37034 ft 535 kts 38°
2026-05-05 21:32 27.97773 123.67046 37020 ft 536 kts 39°
2026-05-05 21:32 28.03436 123.72533 37028 ft 537 kts 39°
2026-05-05 21:33 28.09100 123.78093 37020 ft 537 kts 39°
2026-05-05 21:33 28.14742 123.83608 37016 ft 537 kts 39°
2026-05-05 21:34 28.20410 123.89152 37027 ft 539 kts 39°
2026-05-05 21:34 28.26084 123.94704 37034 ft 539 kts 39°
2026-05-05 21:35 28.31567 124.00433 37042 ft 540 kts 46°
2026-05-05 21:35 28.36276 124.07055 37043 ft 541 kts 54°
2026-05-05 21:36 28.40652 124.14018 37042 ft 542 kts 54°
2026-05-05 21:36 28.45092 124.20921 37038 ft 542 kts 53°
2026-05-05 21:37 28.49575 124.27773 37042 ft 542 kts 53°
2026-05-05 21:37 28.54056 124.34693 37042 ft 543 kts 53°
2026-05-05 21:38 28.58558 124.41582 37043 ft 544 kts 53°
2026-05-05 21:38 28.63054 124.48507 37037 ft 544 kts 53°
2026-05-05 21:39 28.67557 124.55407 37038 ft 544 kts 53°
2026-05-05 21:39 28.72067 124.62322 37041 ft 545 kts 53°
2026-05-05 21:40 28.76865 124.69006 37034 ft 544 kts 42°
2026-05-05 21:40 28.80840 124.72561 37051 ft 541 kts 30°
2026-05-05 21:41 28.94548 124.77684 37035 ft 530 kts
2026-05-05 21:42 28.98108 124.78726 37023 ft 533 kts 12°
2026-05-05 21:42 29.08476 124.82795 37027 ft 536 kts 16°
2026-05-05 21:43 29.15492 124.85660 37020 ft 534 kts 15°
2026-05-05 21:43 29.22522 124.88444 37020 ft 535 kts 15°
2026-05-05 21:44 29.29525 124.91253 37018 ft 535 kts 15°
2026-05-05 21:44 29.36585 124.94074 37027 ft 534 kts 15°
2026-05-05 21:45 29.43565 124.96878 37028 ft 534 kts 15°
2026-05-05 21:45 29.50601 124.99694 37035 ft 535 kts 15°
2026-05-05 21:46 29.57655 125.02519 37034 ft 535 kts 15°
2026-05-05 21:46 29.64687 125.05347 37029 ft 535 kts 15°
2026-05-05 21:47 29.71686 125.08195 37039 ft 535 kts 15°
2026-05-05 21:47 29.78732 125.11046 37036 ft 535 kts 15°
2026-05-05 21:48 29.85750 125.13897 37044 ft 535 kts 15°
2026-05-05 21:48 29.92790 125.16750 37041 ft 536 kts 15°
2026-05-05 21:49 29.99797 125.19596 37035 ft 536 kts 15°
2026-05-05 21:49 30.06834 125.22421 37031 ft 534 kts 15°
2026-05-05 21:50 30.13818 125.25303 37036 ft 534 kts 16°
2026-05-05 21:50 30.20828 125.28210 37040 ft 533 kts 15°
2026-05-05 21:51 30.27781 125.31064 37036 ft 533 kts 15°
2026-05-05 21:51 30.34784 125.33962 37040 ft 533 kts 15°
2026-05-05 21:52 30.45248 125.38279 37044 ft 533 kts 15°
2026-05-05 21:53 30.52262 125.41163 37050 ft 533 kts 15°
2026-05-05 21:53 30.59232 125.44044 37047 ft 532 kts 15°
2026-05-05 21:54 30.66230 125.46926 37043 ft 530 kts 15°
2026-05-05 21:54 30.73205 125.49799 37047 ft 531 kts 15°
2026-05-05 21:55 30.75495 125.50750 37054 ft 531 kts 15°
2026-05-05 21:55 30.87651 125.55802 37047 ft 530 kts 15°
2026-05-05 21:56 30.94599 125.58736 37055 ft 530 kts 15°
2026-05-05 21:56 31.01540 125.61588 37053 ft 528 kts 13°
2026-05-05 21:57 31.08670 125.63660 37053 ft 523 kts
2026-05-05 21:57 31.15845 125.64430 37051 ft 512 kts 353°
2026-05-05 21:58 31.22817 125.63721 37048 ft 501 kts 342°
2026-05-05 21:58 31.29438 125.61467 37045 ft 488 kts 330°
2026-05-05 21:59 31.35345 125.57762 37045 ft 475 kts 318°
2026-05-05 21:59 31.40423 125.52951 37017 ft 472 kts 317°
2026-05-05 22:00 31.46326 125.49412 37060 ft 489 kts 336°
2026-05-05 22:00 31.53112 125.48175 37063 ft 503 kts 355°
2026-05-05 22:01 31.60076 125.49515 37069 ft 516 kts 14°
2026-05-05 22:01 31.66517 125.53374 37067 ft 525 kts 34°
2026-05-05 22:02 31.71727 125.59365 37060 ft 529 kts 52°
2026-05-05 22:02 31.76115 125.66279 37045 ft 530 kts 51°
2026-05-05 22:03 31.80942 125.72852 37047 ft 529 kts 46°
2026-05-05 22:03 31.85943 125.79230 37050 ft 531 kts 46°
2026-05-05 22:04 31.90891 125.85617 37047 ft 532 kts 46°
2026-05-05 22:04 31.95892 125.92097 37053 ft 533 kts 46°
2026-05-05 22:05 32.00851 125.98514 37060 ft 533 kts 46°
2026-05-05 22:05 32.06085 126.04718 37063 ft 530 kts 36°
2026-05-05 22:05 32.09136 126.07145 37095 ft 527 kts 25°
2026-05-05 22:06 32.12381 126.08943 37097 ft 522 kts 16°
2026-05-05 22:06 32.19284 126.11489 37099 ft 519 kts 12°
2026-05-05 22:07 32.26167 126.14120 37090 ft 520 kts 15°
2026-05-05 22:07 32.33009 126.17038 37084 ft 520 kts 16°
2026-05-05 22:08 32.39789 126.19968 37092 ft 519 kts 16°
2026-05-05 22:08 32.46558 126.22835 37091 ft 518 kts 15°
2026-05-05 22:09 32.53366 126.25748 37095 ft 517 kts 15°
2026-05-05 22:09 32.60121 126.28590 37098 ft 515 kts 15°
2026-05-05 22:10 32.66821 126.31491 37094 ft 514 kts 15°
2026-05-05 22:10 32.73541 126.34399 37091 ft 514 kts 15°
2026-05-05 22:11 32.80307 126.37316 37094 ft 514 kts 15°
2026-05-05 22:11 32.86996 126.40214 37088 ft 514 kts 15°
2026-05-05 22:12 32.93759 126.43127 37091 ft 513 kts 15°
2026-05-05 22:12 33.00456 126.46031 37091 ft 513 kts 15°
2026-05-05 22:13 33.07147 126.48850 37089 ft 512 kts 15°
2026-05-05 22:13 33.13852 126.51755 37096 ft 511 kts 15°
2026-05-05 22:14 33.20513 126.54646 37090 ft 509 kts 15°
2026-05-05 22:14 33.27176 126.57523 37091 ft 510 kts 15°
2026-05-05 22:15 33.33861 126.60424 37097 ft 511 kts 15°
2026-05-05 22:15 33.40528 126.63296 37104 ft 510 kts 15°
2026-05-05 22:16 33.47219 126.66167 37095 ft 509 kts 16°
2026-05-05 22:16 33.53925 126.68973 37091 ft 505 kts 11°
2026-05-05 22:17 33.60728 126.70459 37103 ft 497 kts
2026-05-05 22:17 33.67644 126.71108 37102 ft 495 kts 359°
2026-05-05 22:18 33.74512 126.71772 37110 ft 495 kts
2026-05-05 22:18 33.81378 126.72508 37003 ft 494 kts
2026-05-05 22:19 33.88244 126.73257 37028 ft 495 kts
2026-05-05 22:19 33.95097 126.73913 37057 ft 494 kts 360°
2026-05-05 22:20 34.01961 126.74640 37067 ft 492 kts
2026-05-05 22:20 34.08770 126.75380 37083 ft 492 kts
2026-05-05 22:21 34.15588 126.76105 37091 ft 491 kts
2026-05-05 22:21 34.22385 126.76840 37073 ft 489 kts
2026-05-05 22:22 34.29144 126.77529 37089 ft 489 kts
2026-05-05 22:22 34.35935 126.78207 37092 ft 488 kts
2026-05-05 22:23 34.42664 126.78948 37100 ft 487 kts
2026-05-05 22:23 34.49387 126.79663 37117 ft 485 kts
2026-05-05 22:24 34.56126 126.80408 37128 ft 484 kts
2026-05-05 22:24 34.62806 126.81110 37122 ft 483 kts
2026-05-05 22:25 34.69521 126.81854 37122 ft 482 kts
2026-05-05 22:25 34.76176 126.82556 37123 ft 482 kts
2026-05-05 22:26 34.82877 126.83296 37117 ft 481 kts
2026-05-05 22:26 34.89499 126.83999 37115 ft 480 kts
2026-05-05 22:27 34.96144 126.84728 37115 ft 479 kts
2026-05-05 22:27 35.02821 126.85438 37132 ft 480 kts
2026-05-05 22:28 35.09468 126.86171 37128 ft 478 kts
2026-05-05 22:28 35.16058 126.86861 37132 ft 476 kts
2026-05-05 22:29 35.22685 126.87558 37130 ft 477 kts
2026-05-05 22:29 35.29270 126.88297 37131 ft 475 kts
2026-05-05 22:30 35.35859 126.89009 37138 ft 475 kts
2026-05-05 22:30 35.42429 126.89750 37120 ft 474 kts
2026-05-05 22:31 35.49009 126.90461 37132 ft 474 kts
2026-05-05 22:31 35.55575 126.91161 37124 ft 471 kts
2026-05-05 22:32 35.62100 126.91867 37130 ft 471 kts
2026-05-05 22:32 35.68595 126.92596 37123 ft 470 kts
2026-05-05 22:33 35.75108 126.93310 37121 ft 470 kts
2026-05-05 22:33 35.81625 126.94041 37111 ft 469 kts
2026-05-05 22:34 35.88118 126.94759 37111 ft 469 kts
2026-05-05 22:34 35.94608 126.95454 37101 ft 466 kts
2026-05-05 22:35 36.01033 126.96157 37132 ft 466 kts
2026-05-05 22:35 36.07496 126.96880 37105 ft 465 kts
2026-05-05 22:36 36.13954 126.97597 37111 ft 466 kts
2026-05-05 22:36 36.20422 126.98322 37116 ft 466 kts
2026-05-05 22:37 36.26865 126.99036 37108 ft 465 kts
2026-05-05 22:37 36.33296 126.99758 37121 ft 463 kts
2026-05-05 22:38 36.39690 127.00187 36769 ft 459 kts 358°
2026-05-05 22:38 36.42892 127.00193 35957 ft 458 kts 356°
2026-05-05 22:38 36.46059 127.00091 35362 ft 456 kts 355°
2026-05-05 22:38 36.49236 126.99958 34729 ft 455 kts 355°
2026-05-05 22:39 36.52390 126.99840 34085 ft 455 kts 356°
2026-05-05 22:39 36.55535 126.99731 33355 ft 454 kts 356°
2026-05-05 22:39 36.58674 126.99620 32546 ft 454 kts 356°
2026-05-05 22:39 36.61865 126.99479 31647 ft 456 kts 356°
2026-05-05 22:40 36.65035 126.99348 30738 ft 458 kts 356°
2026-05-05 22:40 36.68190 126.99066 29707 ft 461 kts 350°
2026-05-05 22:40 36.71322 126.98179 28702 ft 462 kts 341°
2026-05-05 22:40 36.74316 126.96667 27611 ft 465 kts 332°
2026-05-05 22:41 36.77086 126.94579 26503 ft 469 kts 324°
2026-05-05 22:41 36.79610 126.91966 25313 ft 474 kts 317°
2026-05-05 22:41 36.81930 126.89078 24442 ft 470 kts 314°
2026-05-05 22:41 36.84144 126.86160 23692 ft 466 kts 314°
2026-05-05 22:42 36.86372 126.83218 22998 ft 460 kts 314°
2026-05-05 22:42 36.88572 126.80379 22240 ft 457 kts 314°
2026-05-05 22:42 36.90809 126.77551 21499 ft 453 kts 315°
2026-05-05 22:42 36.92989 126.74796 20744 ft 450 kts 314°
2026-05-05 22:43 36.95138 126.72070 19167 ft 444 kts 314°
2026-05-05 22:43 36.97384 126.69514 17444 ft 436 kts 324°
2026-05-05 22:43 36.99950 126.67705 15828 ft 427 kts 339°
2026-05-05 22:43 37.02775 126.66780 14172 ft 418 kts 352°
2026-05-05 22:44 37.05576 126.66367 12546 ft 409 kts 354°
2026-05-05 22:44 37.08373 126.65997 11198 ft 393 kts 353°
2026-05-05 22:44 37.10965 126.65543 10588 ft 364 kts 351°
2026-05-05 22:44 37.13374 126.65046 10194 ft 335 kts 349°
2026-05-05 22:45 37.15576 126.64558 9919 ft 309 kts 349°
2026-05-05 22:45 37.17610 126.64094 9756 ft 291 kts 348°
2026-05-05 22:45 37.19575 126.63642 9603 ft 285 kts 348°
2026-05-05 22:45 37.21534 126.63193 9366 ft 281 kts 348°
2026-05-05 22:46 37.23446 126.62760 9118 ft 279 kts 348°
2026-05-05 22:46 37.25346 126.62337 8853 ft 277 kts 348°
2026-05-05 22:46 37.27252 126.61916 8574 ft 276 kts 348°
2026-05-05 22:46 37.29075 126.61280 8264 ft 269 kts 328°
2026-05-05 22:47 37.30462 126.59763 7959 ft 264 kts 301°
2026-05-05 22:47 37.31088 126.57636 7648 ft 261 kts 274°
2026-05-05 22:47 37.30819 126.55417 7329 ft 261 kts 246°
2026-05-05 22:47 37.29739 126.53643 6977 ft 262 kts 220°
2026-05-05 22:48 37.28094 126.52694 6523 ft 266 kts 194°
2026-05-05 22:48 37.26239 126.52535 6105 ft 261 kts 181°
2026-05-05 22:48 37.24502 126.53162 5446 ft 264 kts 153°
2026-05-05 22:48 37.23207 126.54744 4851 ft 264 kts 124°
2026-05-05 22:49 37.22659 126.56892 4251 ft 264 kts 95°
2026-05-05 22:49 37.22990 126.59114 3650 ft 262 kts 65°
2026-05-05 22:49 37.24125 126.60847 3080 ft 257 kts 33°
2026-05-05 22:49 37.25763 126.61652 3082 ft 253 kts
2026-05-05 22:50 37.27520 126.61842 3081 ft 255 kts 360°
2026-05-05 22:50 37.29269 126.61777 3195 ft 246 kts 342°
2026-05-05 22:50 37.30609 126.60819 3115 ft 202 kts 310°
2026-05-05 22:50 37.31496 126.59552 3357 ft 191 kts 306°
2026-05-05 22:51 37.32449 126.58416 3504 ft 180 kts 316°
2026-05-05 22:51 37.33436 126.57484 3107 ft 174 kts 317°
2026-05-05 22:51 37.34381 126.56660 2840 ft 168 kts 319°
2026-05-05 22:51 37.35357 126.55773 2556 ft 170 kts 318°
2026-05-05 22:52 37.36283 126.54877 2405 ft 168 kts 317°
2026-05-05 22:52 37.37259 126.53964 2445 ft 176 kts 319°
2026-05-05 22:52 37.38257 126.53033 2418 ft 185 kts 318°
2026-05-05 22:52 37.39271 126.52123 2240 ft 173 kts 320°
2026-05-05 22:53 37.40224 126.51269 1861 ft 170 kts 319°
2026-05-05 22:53 37.41212 126.50386 1537 ft 178 kts 320°
2026-05-05 22:53 37.42272 126.49438 1284 ft 181 kts 322°
2026-05-05 22:53 37.43263 126.48570 900 ft 170 kts 322°
2026-05-05 22:54 37.44198 126.47716 548 ft 162 kts 320°
2026-05-05 22:54 37.45177 126.46861 197 ft 180 kts 326°
2026-05-05 22:54 37.46155 126.46004 34 ft 162 kts 325°
2026-05-05 22:54 37.46807 126.45428 33 ft 79 kts 326°
2026-05-05 22:55 37.47245 126.45042 33 ft 62 kts 325°
2026-05-05 22:55 37.47548 126.44778 33 ft 50 kts 330°
2026-05-05 22:55 37.47759 126.44684 33 ft 22 kts 352°
2026-05-05 22:55 37.47894 126.44706 33 ft 16 kts 69°
2026-05-05 22:56 37.47827 126.44826 33 ft 20 kts 143°
2026-05-05 22:56 37.47704 126.44939 33 ft 23 kts 145°
2026-05-05 22:56 37.47560 126.45064 33 ft 27 kts 145°
2026-05-05 22:56 37.47393 126.45211 33 ft 30 kts 145°
2026-05-05 22:57 37.47223 126.45364 33 ft 19 kts 145°
2026-05-05 22:57 37.47178 126.45459 33 ft 12 kts 76°
2026-05-05 22:57 37.47232 126.45561 33 ft 16 kts 54°
2026-05-05 22:57 37.47298 126.45677 33 ft 11 kts 58°
2026-05-05 22:58 37.47289 126.45750 33 ft 11 kts 144°
2026-05-05 22:58 37.47221 126.45807 33 ft 9 kts 146°
2026-05-05 22:58 37.47171 126.45850 33 ft 4 kts 146°
2026-05-05 22:58 37.47169 126.45852 33 ft 0 kts 146°